Regional Weather Roundup
Issued by NWS Charleston, WV

Home | Current Version | Previous Version | Graphics & Text | Print | Product List | Glossary On
Versions: 1 2 3 4 5 6 7 8 9 10 11 12 13 14 15 16 17 18 19 20 21 22 23 24 25 26 27 28 29 30 31 32 33 34 35 36 37 38 39 40 41 42 43 44 45 46 47 48 49 50
237
ASUS41 KRLX 101310
RWRRLX
West Virginia Regional Weather Roundup
National Weather Service Charleston WV
800 AM EST SAT DEC 10 2016

Note: "fair" indicates few or no clouds below 12,000 feet with no
significant weather and/or obstructions to visibility.

WVZ003-101400-
Northern Panhandle of West Virginia

CITY           SKY/WX    TMP DP  RH WIND       PRES   REMARKS
WHEELING       CLOUDY    22  15  75 W9        30.47R
$$

WVZ009-101400-
Northwest West Virginia

CITY           SKY/WX    TMP DP  RH WIND       PRES   REMARKS
PARKERSBURG    CLOUDY    23  15  71 SW6       30.57R
$$

WVZ006-101400-
Western West Virginia

CITY           SKY/WX    TMP DP  RH WIND       PRES   REMARKS
HUNTINGTON     CLOUDY    23  13  65 CALM      30.57R
$$

WVZ015-101400-
West Central West Virginia

CITY           SKY/WX    TMP DP  RH WIND       PRES   REMARKS
CHARLESTON     FLURRIES  23  13  65 W5        30.55R
$$

WVZ022-031-101400-
North Central West Virginia

CITY           SKY/WX    TMP DP  RH WIND       PRES   REMARKS
CLARKSBURG     CLOUDY    22  14  71 W7        30.51R
MORGANTOWN     CLOUDY    22  15  75 SW9       30.49R
$$

WVZ025-035-042-045-101400-
Southern West Virginia

CITY           SKY/WX    TMP DP  RH WIND       PRES   REMARKS
BECKLEY        CLOUDY    17  10  74 W6        30.43R WCI   9
LOGAN          CLOUDY    19  12  73 CALM      30.51R
BLUEFIELD      CLOUDY    15  10  80 W9        30.41R WCI   3
LEWISBURG      FLURRIES  18  10  70 NW5       30.43S
$$

WVZ047-101400-
Northern Mountains of West Virginia

CITY           SKY/WX    TMP DP  RH WIND       PRES   REMARKS
ELKINS         FLURRIES  20  11  68 SW7       30.45R
$$

WVZ052-101400-
Eastern Panhandle of West Virginia

CITY           SKY/WX    TMP DP  RH WIND       PRES   REMARKS
MARTINSBURG    PTCLDY    25  14  63 SW6       30.47S
PETERSBURG     CLOUDY    26  15  61 W3        30.49R
$$




USA.gov is the U.S. government's official web portal to all federal, state and local government web resources and services.